Weather Service Report


269 
ASUS46 KSEW 191110
RWRWA 

WASHINGTON REGIONAL WEATHER ROUNDUP
NATIONAL WEATHER SERVICE SEATTLE WA
400 AM PDT SAT APR 19 2014

NOTE:"FAIR" INDICATES FEW OR NO CLOUDS BELOW 12,000 FEET WITH NO 
SIGNIFICANT WEATHER AND/OR OBSTRUCTIONS TO VISIBILITY.

WAZ505-507>509-191200-
SEATTLE, TACOMA, EVERETT, AND VICINITY
  
CITY           SKY/WX    TMP DP  RH WIND       PRES   REMARKS
EVERETT        PTCLDY    44  34  67 SE9       29.82F                  
BOEING FIELD   PTCLDY    46  38  73 CALM      29.82F                  
RENTON         PTCLDY    42  39  89 CALM      29.82F                  
SEATAC AIRPORT PTCLDY    46  35  65 E6        29.81F                  
JBLM-MCCHORD   CLOUDY    38  38  99 CALM      29.81F                  
PUYALLUP         N/A     37  37 100 CALM      29.82F                  
JBLM-FT LEWIS  CLOUDY    38  38  99 SE5       29.81F                  
TACOMA NARROWS PTCLDY    45  38  76 N3        29.81F                  
$$
 
WAZ001-503-506-510-514-515-191200-
NORTH INTERIOR
  
CITY           SKY/WX    TMP DP  RH WIND       PRES   REMARKS
BELLINGHAM     MOCLDY    42  35  76 CALM      29.83F                  
FRIDAY HARBOR  CLOUDY    44  38  79 W3        29.84F                  
EASTSOUND      CLOUDY    45  39  81 NE6       29.82F                  
PORT ANGELES   CLOUDY    43  39  86 W3        29.81F                  
NAS WHIDBEY    CLOUDY    46  39  76 E12       29.82F                  
BURLINGTON     CLEAR     45  36  70 E10       29.85F                  
$$
 
WAZ020-022-039-040-504-511-512-191200-
SOUTHWEST INTERIOR
  
CITY           SKY/WX    TMP DP  RH WIND       PRES   REMARKS
SHELTON        PTCLDY    39  37  92 CALM      29.80F                  
OLYMPIA        PTCLDY    39  37  92 CALM      29.82F                  
CHEHALIS       FAIR      39  39 100 CALM      29.84F FOG              
KELSO          PTCLDY    39  36  87 CALM      29.87S                  
VANCOUVER      CLEAR     41  37  86 CALM      29.85S                  
SCAPPOOSE, OR  CLEAR     36  35  96 CALM      29.85S                  
PORTLAND, OR   PTCLDY    44  39  82 SE6       29.85F                  
$$
 
WAZ021-516-517-191200-
WASHINGTON COAST
  
CITY           SKY/WX    TMP DP  RH WIND       PRES   REMARKS
FORKS          CLOUDY    44  39  82 E8        29.75F                  
HOQUIAM        CLOUDY    47  40  76 E10       29.78F                  
ASTORIA, OR    MOCLDY    46  40  79 SE5       29.78F                  
$$
 
WAZ019-023-024-040-518-519-191200-
CASCADE MOUNTAINS AND COLUMBIA GORGE
  
CITY           SKY/WX    TMP DP  RH WIND       PRES   REMARKS
STAMPEDE PASS  NOT AVBL                                               
TROUTDALE, OR  CLEAR     44  38  79 SE5       29.84F                  
THE DALLES, OR CLEAR     37  34  89 CALM      29.92S                  
$$

WAZ026-027-041>044-520-521-191200-
EAST SLOPES
  
CITY           SKY/WX    TMP DP  RH WIND       PRES   REMARKS
OMAK           CLEAR     29  20  69 SW3       29.93S                  
WENATCHEE      CLEAR     40  27  59 NW7       29.93S                  
ELLENSBURG     CLEAR     31  25  78 CALM      29.91S                  
YAKIMA         PTCLDY    32  26  78 W7        29.92F                  
$$

WAZ028-034-035-191200-
COLUMBIA BASIN
  
CITY           SKY/WX    TMP DP  RH WIND       PRES   REMARKS
EPHRATA        CLEAR     35  25  66 N6        29.92S                  
MOSES LAKE     CLEAR     29  23  78 N7        29.93S                  
HANFORD        NOT AVBL                                               
PASCO          CLEAR     32  31  96 CALM      29.93F                  
HERMISTON, OR  CLEAR     36  33  89 CALM      29.89F                  
$$

WAZ036>038-191200-
NORTHEAST WASHINGTON
  
CITY           SKY/WX    TMP DP  RH WIND       PRES   REMARKS
SPOKANE GEIGER CLEAR     37  27  67 SE7       29.93F                  
SPOKANE FELTS  CLEAR     35  29  78 NE5       29.96S                  
FAIRCHILD AFB  CLEAR     36  27  70 SE7       29.93F                  
COEURDALENE,ID CLEAR     30  27  86 E7        29.98R                  
DEER PARK      CLEAR     26  23  88 NE3       29.95S                  
$$

WAZ029>033-191200-
SOUTHEAST WASHINGTON
  
CITY           SKY/WX    TMP DP  RH WIND       PRES   REMARKS
PULLMAN        CLEAR     37  27  67 E13       29.94F                  
LEWISTON, ID   CLEAR     36  28  73 E7        29.96F                  
WALLA WALLA    CLEAR     37  30  75 CALM      29.91S                  
PENDLETON, OR  CLEAR     36  29  75 E9        29.88F                  
$$

Return to Home page


Western Regional Climate Center, wrcc@dri.edu